EW5933 Weather Reports


Display with metric or nautical units.
time (UTC)temp
F
wind
direction
speed
MPH
gust
MPH
rain 1hr
in
rain 24hr
in
rain mn
in
humidity
%
barometer
mb
20190122012113 53 67 0.0 2.0 0.00 0.00 0.00 65 1005.9
20190122011113 53 247 0.0 0.0 0.00 0.00 0.00 65 1005.9
20190122010113 53 270 0.0 0.0 0.00 0.00 0.00 65 1005.9
20190122005112 54 247 0.0 0.0 0.00 0.00 0.00 65 1005.9
20190122003113 54 292 1.0 1.0 0.00 0.00 0.00 65 1006.0
20190122002112 54 157 2.0 3.0 0.00 0.00 0.00 65 1005.9
20190122000112 54 270 1.0 2.0 0.00 0.00 0.00 65 1006.1
20190121234113 54 247 0.0 0.0 0.00 0.00 0.00 65 1005.8
20190121230112 55 247 1.0 3.0 0.00 0.00 0.00 65 1005.6
20190121225113 55 360 0.0 2.0 0.00 0.00 0.00 64 1005.6
20190121223112 56 22 0.0 0.0 0.00 0.00 0.00 65 1005.4
20190121221112 56 315 0.0 0.0 0.00 0.00 0.00 64 1005.2
20190121220112 56 157 0.0 0.0 0.00 0.00 0.00 64 1004.8
20190121215113 56 67 0.0 1.0 0.00 0.00 0.00 64 1004.8
20190121213113 56 315 1.0 1.0 0.00 0.00 0.00 63 1004.9
20190121212113 56 337 0.0 0.0 0.00 0.00 0.00 63 1004.6
20190121210112 57 270 1.0 2.0 0.00 0.00 0.00 63 1004.4
20190121205113 57 360 2.0 3.0 0.00 0.00 0.00 63 1004.4
20190121204113 57 270 0.0 0.0 0.00 0.00 0.00 63 1004.2
20190121201113 57 67 0.0 0.0 0.00 0.00 0.00 63 1004.1
20190121193113 58 22 2.0 4.0 0.00 0.00 0.00 64 1003.6
20190121192113 58 135 1.0 2.0 0.00 0.00 0.00 65 1003.4
20190121191112 58 315 1.0 0.0 0.00 0.00 0.00 66 1003.4
20190121190113 59 135 2.0 4.0 0.00 0.00 0.00 67 1003.0
20190121185113 59 112 1.0 4.0 0.00 0.00 0.00 68 1003.0
20190121181112 60 112 0.0 0.0 0.00 0.00 0.00 68 1002.6
20190121180112 60 135 0.0 0.0 0.00 0.00 0.00 67 1002.2
20190121174113 60 112 0.0 0.0 0.00 0.00 0.00 66 1001.9
20190121172112 60 135 0.0 3.0 0.00 0.00 0.00 65 1001.6
20190121171112 60 135 0.0 0.0 0.00 0.00 0.00 64 1001.6
20190121165111 61 90 0.0 0.0 0.00 0.00 0.00 62 1001.6
20190121163112 61 225 0.0 0.0 0.00 0.00 0.00 61 1001.4
20190121153111 62 337 1.0 2.0 0.00 0.00 0.00 58 1001.1
20190121145111 63 22 2.0 4.0 0.00 0.00 0.00 58 1000.8
20190121144111 63 22 2.0 3.0 0.00 0.00 0.00 57 1000.6
20190121143112 63 67 2.0 2.0 0.00 0.00 0.00 57 1000.6
20190121141111 64 360 2.0 3.0 0.00 0.00 0.00 56 1000.4
20190121135112 65 22 1.0 3.0 0.00 0.00 0.00 53 1000.2
20190121132112 65 315 1.0 2.0 0.00 0.00 0.00 50 1000.1
20190121125111 65 22 1.0 2.0 0.00 0.00 0.00 51 1000.1
20190121124111 65 315 1.0 0.0 0.00 0.00 0.00 51 1000.4
20190121122111 65 360 1.0 3.0 0.00 0.00 0.00 52 1000.6
20190121113111 65 270 2.0 5.0 0.00 0.00 0.00 54 1001.1
20190121112111 65 247 3.0 4.0 0.00 0.00 0.00 55 1001.2
20190121111111 64 270 4.0 6.0 0.00 0.00 0.00 55 1001.2
20190121101112 63 225 4.0 2.0 0.00 0.00 0.00 55 1001.8
20190121100110 62 225 3.0 7.0 0.00 0.00 0.00 56 1001.8
20190121094111 61 247 4.0 3.0 0.00 0.00 0.00 57 1001.8
20190121093110 60 270 4.0 5.0 0.00 0.00 0.00 57 1001.8
20190121091110 60 225 5.0 7.0 0.00 0.00 0.00 58 1001.8
20190121090110 59 292 4.0 7.0 0.00 0.00 0.00 59 1002.0
20190121083111 57 225 3.0 3.0 0.00 0.00 0.00 62 1001.9
20190121080110 53 247 4.0 4.0 0.00 0.00 0.00 65 1001.9
20190121074110 51 225 4.0 4.0 0.00 0.00 0.00 65 1001.8
20190121073110 51 202 4.0 6.0 0.00 0.00 0.00 65 1001.8
20190121071110 51 225 2.0 3.0 0.00 0.00 0.00 65 1001.9
20190121065110 51 270 2.0 5.0 0.00 0.00 0.00 66 1001.8
20190121062110 49 247 1.0 2.0 0.00 0.00 0.00 66 1001.7
20190121061110 49 247 1.0 2.0 0.00 0.00 0.00 66 1001.7
20190121054110 50 270 2.0 4.0 0.00 0.00 0.00 65 1001.2
20190121053110 50 225 3.0 4.0 0.00 0.00 0.00 65 1001.2
20190121051110 50 315 2.0 2.0 0.00 0.00 0.00 65 1001.6
20190121045110 50 270 2.0 3.0 0.00 0.00 0.00 65 1001.8
20190121043110 51 270 3.0 2.0 0.00 0.00 0.00 65 1001.9
20190121041110 51 247 3.0 2.0 0.00 0.00 0.00 65 1001.8
20190121035110 51 270 3.0 3.0 0.00 0.00 0.00 65 1002.2
20190121034110 51 270 3.0 4.0 0.00 0.00 0.00 65 1002.5
20190121032110 51 292 3.0 4.0 0.00 0.00 0.00 65 1002.6
20190121031109 52 247 5.0 5.0 0.00 0.00 0.00 64 1002.6
20190121030109 52 247 4.0 5.0 0.00 0.00 0.00 65 1002.7
20190121024109 52 292 5.0 5.0 0.00 0.00 0.00 64 1002.8
20190121023115 52 90 5.0 9.0 0.00 0.00 0.00 63 1002.8
20190121022115 52 202 4.0 5.0 0.00 0.00 0.00 62 1003.0
20190121015114 52 270 5.0 7.0 0.00 0.00 0.00 62 1003.2